Regional Weather Roundup
Issued by NWS Green Bay, WI

Home | Current Version | Previous Version | Text Only | Print | Product List | Glossary On
Versions: 1 2 3 4 5 6 7 8 9 10 11 12 13 14 15 16 17 18 19 20 21 22 23 24 25 26 27 28 29 30 31 32 33 34 35 36 37 38 39 40 41 42 43 44 45 46 47 48 49 50
000
ASUS43 KGRB 291011
RWRGRB

NORTH-CENTRAL AND NORTHEAST WISCONSIN REGIONAL WEATHER ROUNDUP
NATIONAL WEATHER SERVICE GREEN BAY WI
500 AM CDT THU JUN 29 2017

WIZ005-009-010>012-018-019-291100-
NORTH CENTRAL WISCONSIN

CITY           SKY/WX    TMP DP  RH WIND       PRES   REMARKS
IRONWOOD       CLOUDY    60  58  92 SW10      29.54R
MANITOWISH WTR DRIZZLE   63  63 100 SW6       29.56R
ARBOR VITAE    CLOUDY    63  62  95 SW6       29.57S
EAGLE RIVER    MOCLDY    63  63 100 SW5       29.57S
LAND O LAKES   CLOUDY    64  64  97 S5        29.58S
RHINELANDER    LGT RAIN  63  63 100 SW9       29.59S
PHILLIPS       CLOUDY    61  61 100 W5        29.58R
ANTIGO         CLOUDY    64  64  98 W10       29.62S
TOMAHAWK       NOT AVBL
MERRILL        CLOUDY    64  64 100 SW6       29.61S
$$

WIZ013-073-291100-
NORTHEAST WISCONSIN

CITY           SKY/WX    TMP DP  RH WIND       PRES   REMARKS
IRON MOUNTAIN  CLOUDY    64  62  93 S7        29.58S FOG
MARINETTE      MOCLDY    64  63  96 S3        29.61S
OCONTO         CLOUDY    67  64  88 SW7       29.61R
$$

WIZ017-030-035>037-045-291100-
CENTRAL WISCONSIN

CITY           SKY/WX    TMP DP  RH WIND       PRES   REMARKS
MEDFORD        CLOUDY    63  61  93 SW8       29.62R
WAUSAU         CLOUDY    64  64 100 SW6       29.61R
MOSINEE        CLOUDY    63  63 100 SW9       29.65R
MARSHFIELD     CLOUDY    64  62  93 W9        29.63R
WISC RAPIDS    CLOUDY    65  63  93 SW7       29.66R
STEVENS POINT  CLOUDY    62  62 100 S6        29.65R
WAUPACA        CLEAR     66  65  97 SW6       29.64R
SHAWANO        CLOUDY    68  64  88 SW6       29.62R
CLINTONVILLE   MOCLDY    64  63  94 SW7       29.63R
WAUTOMA        CLEAR     64  63  96 SW3       29.65R
$$

WIZ038-039-048-051-291100-
FOX VALLEY

CITY           SKY/WX    TMP DP  RH WIND       PRES   REMARKS
NWS GREEN BAY  PTCLDY    67  66  97 SW10      29.63R
APPLETON       PTCLDY    64  64 100 SW12      29.63R
OSHKOSH        CLOUDY    66  63  90 S10       29.63S
FOND DU LAC    PTCLDY    66  61  84 SW9       29.65S
$$

WIZ022-050-052-291100-
EAST CENTRAL WISCONSIN

CITY           SKY/WX    TMP DP  RH WIND       PRES   REMARKS
EPHRAIM        CLOUDY    58  57  99 S8        29.61S FOG
WASHINGTON ISL CLOUDY    57  57  99 S12       29.61F FOG
STURGEON BAY     N/A     60  59  96 S8        29.63R
MANITOWOC      PTCLDY    66  62  87 SW6       29.65R
SHEBOYGAN      PTCLDY    63  63 100 S8        29.65S
$$

LMZ563-521-522-541>543-291100-
LAKESHORE

STATION/POSITION TIME  TEMP    WIND        PRES    VSBY  WAVE
                       AIR SEA DIR/SP/G                  HT/PER
                 (UTC) (F)     (DEG/KT/KT) (MB)    (MI)  (FT/S)
SHEBOYGAN LKSHOR 1000   58     180/ 12/ 13 1004.1R
KEWAUNEE LKSHORE 0948   54     180/  7/  9 1003.3R
NORTHPORT PIER   0940   58     170/  7/ 17 1002.7F
N MID LAKE BUOY  0950   57 53  190/ 19/ 23 1003.5F         6/ 7
S GREEN BAY BUOY 1000   67     210/ 14/ 16 1002.8
CHAMBERS ISLAND  0940   62     160/  4/  8 1002.4S
MENOMINEE LKSHOR 0948          180/  9/ 11 1002.0R
$$



USA.gov is the U.S. government's official web portal to all federal, state and local government web resources and services.